Temp
17 17 17 17 16 16 17 18 18 18 17 17 17 17 17 17 16 16 16 16 16 15 14 15 14 13 13 13 12 12 11 11 11 10 10 11 11 11 11 10 10 10 9
15 16 16 16 16 16 16 17 17 17 17 17 17 18 18 18 17 17 16 16 16 16 15 15 15 14 13 13 12 12 12 11 11 10 10 10 10 11 11 10 9 9 9
13 15 14 14 15 16 16 16 17 16 16 16 17 17 17 17 17 17 16 16 16 16 15 16 15 15 13 13 13 12 12 12 11 11 10 10 11 11 10 9 9 9 8
12 13 14 16 16 16 15 16 16 16 16 16 16 16 16 17 17 17 17 17 17 16 16 16 15 15 14 13 12 12 11 11 11 11 11 11 11 11 10 9 9 8 8
12 13 14 15 15 16 16 15 16 16 16 16 16 16 16 16 16 16 16 16 16 16 16 15 15 15 15 13 12 12 11 11 11 11 11 10 10 10 10 10 9 8 8
13 13 14 14 15 15 16 16 15 16 16 16 16 16 16 16 16 16 15 16 16 16 16 16 15 15 15 14 13 12 11 10 10 10 9 10 10 10 10 9 8 8 7
12 12 13 14 14 14 14 15 16 16 16 16 16 16 15 15 15 16 16 15 15 15 16 15 15 15 15 14 14 12 10 10 10 10 9 9 9 9 8 9 8 7 6
11 11 11 11 12 13 14 14 14 15 15 15 15 15 15 15 15 15 15 15 16 15 15 15 15 15 15 14 13 11 10 9 9 9 8 8 7 6 7 7 6 6 5
10 10 10 11 11 11 12 12 13 13 14 14 14 14 14 14 14 14 15 15 14 15 15 15 15 14 14 13 12 10 9 9 8 8 6 7 6 6 5 5 5 4 3
9 9 9 9 9 10 10 11 10 11 12 13 14 14 14 14 14 14 14 14 14 14 13 14 15 14 12 11 10 9 8 8 7 6 6 5 5 4 4 2 3 2 1
9 9 8 8 8 9 9 10 10 10 11 11 12 13 13 13 13 13 13 13 13 13 12 11 11 10 10 9 9 8 7 6 5 5 4 4 3 3 1 0 -0 1 -0
7 7 7 7 8 8 9 9 9 10 10 11 11 12 12 12 12 12 11 11 11 10 9 9 9 9 9 8 7 6 5 4 4 3 3 2 2 1 1 1 0 -1 -1
6 6 6 6 7 8 8 9 9 9 10 10 11 11 11 10 10 10 9 8 8 8 8 8 8 8 8 6 5 4 3 3 2 2 1 1 1 0 0 -0 -2 -1 -2
4 4 5 6 6 7 8 8 8 8 8 8 8 7 8 7 7 7 7 7 6 7 7 7 7 6 5 4 3 2 2 1 1 1 1 1 -0 -0 -3 -1 -1 -3 -3
4 6 4 5 5 6 6 6 7 7 6 5 5 5 5 6 5 6 6 6 6 6 6 5 3 3 2 2 2 1 1 1 1 1 -0 -0 -1 -3 -2 -2 -2 -3 -4
2 3 2 4 4 4 4 4 4 3 3 4 4 4 4 5 4 4 3 3 3 2 2 2 1 1 1 0 -0 0 0 -0 -0 -0 -2 -2 -2 -2 -2 -3 -4 -4 -5
1 2 1 3 4 3 3 3 2 2 1 1 2 1 2 2 2 2 1 1 2 1 1 1 1 1 -0 -0 -0 -0 -0 -2 -1 -1 -2 -3 -3 -3 -3 -4 -4 -5 -5
1 1 1 2 3 2 2 2 1 1 1 -0 1 0 0 1 1 1 0 0 1 1 0 -0 -0 -0 -0 -1 -1 -1 -2 -1 -1 -2 -3 -3 -4 -4 -4 -5 -6 -7 -7
1 0 1 1 2 2 2 2 1 -0 -1 -1 -1 -1 -0 -1 -0 -1 -1 -1 -1 -1 -1 -1 -1 -1 -1 -1 -0 -2 -2 -3 -3 -4 -5 -5 -5 -5 -5 -8 -8 -8 -8
-0 -0 -0 -0 0 1 1 1 1 -1 -1 -1 -1 -1 -1 -1 -1 -1 -1 -1 -1 -1 -1 -0 -1 -0 -3 -4 -3 -3 -3 -4 -5 -5 -5 -6 -7 -8 -8 -8 -9 -9 -8
-1 -1 -1 -0 -0 0 0 0 -0 -1 -2 -2 -2 -2 -1 -1 -1 -1 -1 -1 -0 -1 -1 -1 -2 -2 -2 -3 -4 -5 -5 -5 -5 -6 -6 -6 -7 -9 -9 -9 -9 -9 -9
-1 -1 -1 -1 -1 -1 -0 -0 -1 -1 -1 -1 -1 -1 -1 -2 -1 -1 -1 -1 -2 -2 -2 -2 -2 -3 -4 -4 -5 -5 -6 -7 -6 -6 -7 -8 -10 -9 -9 -8 -8 -9 -9
0 -1 -1 -1 -1 -1 -1 -1 -1 -1 -1 -1 -1 -1 -1 -1 -1 -2 -2 -2 -2 -2 -2 -3 -3 -4 -4 -5 -5 -6 -7 -7 -8 -9 -9 -9 -8 -8 -8 -8 -8 -8 -8
1 1 -1 -1 -0 -1 -1 -0 -1 -1 -1 -1 -1 -1 -1 -1 -1 -2 -2 -2 -2 -3 -3 -3 -4 -4 -5 -6 -7 -8 -8 -8 -9 -8 -9 -9 -9 -9 -9 -8 -8 -8 -8
1 0 1 0 0 -0 -0 -1 -1 -1 -1 -0 -1 -1 -1 -2 -2 -2 -2 -2 -2 -3 -4 -4 -5 -6 -6 -8 -9 -10 -9 -10 -9 -9 -9 -8 -8 -8 -8 -8 -8 -8 -8
1 0 0 -0 -1 -1 -0 -0 -1 -1 -0 -0 -1 -1 -1 -2 -2 -2 -3 -4 -4 -4 -5 -5 -6 -6 -7 -8 -8 -8 -9 -8 -8 -9 -8 -9 -9 -8 -8 -8 -8 -8 -8
Height
1470 1473 1475 1477 1477 1479 1481 1482 1484 1486 1489 1490 1491 1493 1494 1498 1502 1504 1508 1511 1512 1515 1518 1521 1524 1525 1526 1529 1532 1533 1535 1537 1539 1540 1540 1540 1540 1540 1541 1541 1540 1540 1541
1464 1464 1465 1467 1469 1471 1474 1475 1476 1479 1481 1483 1486 1485 1488 1490 1494 1497 1501 1505 1507 1509 1512 1514 1517 1519 1521 1524 1526 1528 1530 1532 1534 1535 1537 1537 1538 1536 1536 1537 1537 1537 1536
1459 1457 1457 1458 1460 1461 1465 1468 1470 1472 1474 1475 1479 1478 1481 1482 1485 1488 1493 1497 1500 1503 1505 1508 1511 1513 1515 1517 1520 1522 1525 1527 1530 1531 1534 1532 1531 1531 1531 1532 1534 1534 1534
1460 1456 1454 1454 1454 1455 1455 1457 1461 1464 1467 1470 1470 1471 1473 1474 1477 1481 1485 1488 1491 1495 1498 1501 1505 1506 1507 1509 1513 1516 1518 1521 1522 1525 1527 1527 1527 1527 1528 1529 1529 1530 1530
1459 1456 1454 1453 1452 1452 1452 1452 1454 1458 1461 1463 1464 1466 1467 1468 1471 1474 1477 1480 1484 1486 1489 1494 1497 1500 1501 1502 1506 1509 1511 1514 1516 1518 1519 1520 1521 1522 1523 1523 1524 1525 1525
1458 1456 1454 1453 1451 1451 1450 1451 1451 1454 1456 1458 1459 1460 1461 1463 1464 1466 1468 1471 1474 1478 1480 1485 1488 1492 1494 1495 1498 1501 1504 1507 1509 1511 1513 1515 1516 1515 1517 1516 1519 1519 1520
1457 1455 1453 1452 1451 1450 1450 1450 1449 1451 1452 1453 1454 1454 1455 1456 1457 1459 1461 1463 1466 1468 1471 1475 1478 1484 1487 1488 1490 1494 1497 1500 1503 1505 1506 1508 1510 1510 1513 1511 1512 1512 1513
1458 1455 1453 1451 1450 1450 1449 1448 1448 1448 1448 1449 1450 1450 1451 1451 1451 1453 1455 1456 1457 1460 1464 1467 1469 1474 1477 1481 1483 1487 1491 1495 1497 1499 1501 1502 1503 1508 1506 1507 1508 1507 1507
1456 1453 1452 1450 1448 1446 1445 1444 1444 1444 1444 1444 1445 1445 1446 1446 1446 1447 1447 1449 1450 1452 1455 1458 1461 1464 1468 1473 1477 1480 1485 1489 1491 1493 1495 1497 1499 1498 1502 1503 1503 1505 1502
1455 1453 1450 1448 1446 1445 1443 1441 1441 1440 1439 1439 1439 1439 1439 1439 1439 1440 1440 1442 1443 1444 1446 1449 1452 1456 1460 1465 1470 1474 1479 1482 1485 1487 1488 1491 1492 1494 1494 1494 1498 1501 1499
1453 1450 1447 1445 1443 1441 1438 1437 1436 1436 1436 1435 1434 1433 1433 1432 1432 1432 1432 1434 1436 1437 1440 1443 1446 1451 1455 1461 1466 1470 1473 1476 1480 1482 1484 1486 1488 1487 1490 1489 1487 1494 1492
1451 1447 1443 1440 1438 1436 1435 1434 1433 1433 1432 1431 1429 1428 1426 1425 1424 1425 1427 1428 1429 1431 1434 1439 1443 1448 1452 1458 1462 1467 1470 1475 1477 1479 1480 1481 1482 1484 1485 1485 1486 1488 1488
1448 1445 1442 1440 1436 1433 1432 1431 1430 1429 1428 1427 1425 1424 1422 1420 1418 1421 1422 1424 1425 1428 1431 1435 1439 1445 1449 1453 1459 1464 1469 1471 1474 1475 1477 1477 1480 1480 1482 1483 1483 1483 1483
1449 1444 1441 1438 1436 1434 1432 1431 1429 1427 1425 1423 1421 1420 1418 1418 1418 1419 1419 1422 1423 1426 1429 1433 1438 1443 1448 1453 1458 1462 1466 1469 1471 1473 1475 1475 1476 1475 1477 1477 1476 1477 1477
1445 1443 1442 1439 1437 1435 1434 1431 1429 1427 1424 1422 1420 1418 1418 1416 1416 1417 1419 1422 1423 1426 1429 1433 1440 1444 1450 1455 1458 1461 1465 1468 1470 1472 1472 1471 1470 1472 1473 1473 1470 1470 1470
1447 1445 1443 1440 1437 1435 1434 1432 1430 1428 1425 1423 1420 1418 1418 1417 1418 1418 1421 1424 1426 1429 1433 1437 1442 1447 1452 1458 1460 1463 1465 1467 1468 1467 1468 1470 1471 1470 1467 1469 1467 1467 1465
1446 1444 1442 1439 1437 1436 1435 1434 1432 1430 1427 1425 1423 1422 1421 1420 1421 1422 1426 1427 1430 1434 1438 1442 1447 1450 1454 1457 1461 1462 1463 1465 1465 1463 1468 1470 1468 1465 1463 1464 1463 1461 1460
1446 1444 1442 1439 1438 1438 1437 1436 1433 1431 1429 1428 1426 1424 1425 1424 1425 1427 1428 1434 1435 1438 1441 1445 1448 1453 1455 1458 1460 1459 1460 1461 1463 1463 1466 1466 1464 1462 1460 1459 1457 1455 1454
1445 1443 1442 1441 1440 1439 1438 1437 1436 1434 1433 1431 1429 1428 1428 1428 1429 1431 1434 1438 1440 1442 1444 1448 1451 1453 1456 1458 1457 1459 1460 1462 1462 1463 1463 1462 1459 1457 1455 1454 1451 1449 1448
1444 1443 1442 1442 1441 1440 1440 1439 1437 1436 1435 1434 1434 1434 1435 1436 1438 1440 1443 1445 1445 1445 1448 1451 1452 1454 1456 1458 1457 1459 1459 1460 1461 1460 1459 1456 1454 1452 1451 1449 1446 1443 1442
1443 1442 1442 1443 1442 1441 1442 1441 1440 1439 1439 1438 1439 1441 1442 1443 1446 1448 1448 1449 1450 1451 1452 1453 1455 1457 1458 1458 1458 1458 1457 1457 1456 1455 1453 1452 1450 1448 1447 1445 1442 1440 1438
1443 1442 1443 1444 1444 1444 1445 1444 1444 1443 1444 1445 1446 1448 1449 1450 1451 1452 1452 1453 1454 1455 1455 1456 1457 1458 1459 1459 1458 1456 1455 1454 1453 1451 1450 1448 1446 1443 1441 1439 1437 1436 1434
1443 1443 1445 1446 1447 1447 1448 1449 1448 1449 1450 1451 1452 1453 1454 1455 1455 1456 1457 1457 1458 1458 1458 1458 1458 1458 1457 1456 1455 1454 1453 1452 1450 1448 1446 1443 1441 1439 1438 1436 1434 1432 1430
1446 1447 1447 1448 1449 1451 1452 1452 1453 1454 1455 1456 1457 1457 1458 1458 1459 1459 1459 1459 1459 1458 1458 1458 1457 1457 1455 1454 1452 1452 1450 1448 1446 1444 1441 1439 1437 1436 1435 1434 1433 1430 1427
1448 1450 1451 1451 1452 1454 1455 1456 1457 1458 1459 1460 1460 1460 1460 1460 1460 1460 1460 1460 1460 1459 1458 1457 1456 1455 1454 1452 1451 1450 1447 1445 1443 1440 1439 1437 1436 1435 1434 1432 1430 1428 1425
1450 1451 1452 1454 1454 1456 1457 1459 1460 1461 1462 1462 1462 1462 1462 1462 1462 1461 1460 1459 1457 1457 1457 1456 1455 1453 1452 1450 1449 1447 1445 1443 1441 1439 1437 1435 1434 1432 1430 1428 1427 1425 1423
Wind_Speed
34 32 32 30 28 26 24 32 35 36 32 32 31 30 33 38 37 35 32 31 29 27 27 26 27 28 28 27 25 25 24 23 21 19 18 18 17 16 15 14 13 13 12
37 38 38 35 31 30 28 25 29 32 35 37 35 33 32 34 36 38 34 32 33 31 28 30 29 30 30 30 30 28 27 25 23 22 20 14 19 20 20 18 17 16 15
25 25 22 21 21 27 31 29 26 23 20 30 34 35 34 36 36 40 40 37 34 33 33 32 33 31 32 32 32 32 30 27 24 24 20 9 12 12 19 20 19 18 17
23 16 11 9 9 10 15 26 33 30 27 21 24 29 37 40 38 36 39 40 39 35 35 34 34 35 33 33 34 35 33 31 28 26 28 28 17 9 7 16 20 20 20
28 25 21 14 11 7 7 10 19 28 24 24 25 25 26 29 36 38 38 43 43 41 39 36 37 37 36 34 34 34 34 34 31 29 31 31 29 24 20 12 17 18 19
30 27 22 15 13 11 9 8 9 13 17 20 23 27 31 31 29 29 32 35 41 44 43 39 38 38 36 36 35 35 37 35 33 31 30 29 27 26 23 20 19 15 16
32 30 27 23 20 15 12 9 7 9 13 16 19 22 26 28 30 31 31 33 34 42 43 44 41 35 39 39 36 37 39 37 34 32 31 29 26 24 21 19 18 16 17
30 26 24 24 22 17 13 13 13 12 12 14 16 17 17 22 26 29 32 35 34 32 39 43 43 42 42 41 38 38 37 34 32 32 31 31 27 22 20 16 17 15 17
30 27 25 22 22 21 18 16 17 18 17 18 21 22 22 24 25 26 29 33 33 35 34 39 44 46 43 35 39 33 33 32 32 31 28 25 23 23 19 15 15 16 12
27 28 23 21 21 25 20 19 16 16 18 22 25 27 27 28 28 26 27 29 31 33 35 37 39 41 40 38 33 29 30 32 32 29 27 24 21 18 18 12 12 15 15
27 26 24 24 23 22 18 15 14 15 15 15 19 23 26 27 25 23 25 27 29 31 32 32 31 32 32 29 26 28 31 30 28 25 22 20 19 17 14 14 12 20 21
23 25 24 22 25 18 18 15 17 20 21 20 17 19 23 24 21 19 20 23 25 26 25 24 24 26 26 24 27 29 28 25 23 22 21 19 17 16 14 17 19 18 18
24 23 18 18 20 17 15 15 18 22 23 21 19 18 19 18 14 14 14 16 17 18 19 20 23 24 25 26 26 26 25 23 19 18 17 14 12 14 17 17 16 17 20
20 19 17 15 15 14 14 15 16 15 16 16 14 13 15 9 7 6 8 11 14 18 18 20 21 23 25 25 24 21 19 16 15 13 12 11 12 12 13 15 16 18 21
20 17 17 15 14 15 15 16 17 17 16 12 9 6 5 6 7 10 11 14 16 17 18 20 21 22 21 19 17 14 11 12 11 11 12 12 10 12 15 17 17 19 21
13 14 12 11 13 15 15 16 14 13 13 10 4 4 5 6 8 9 12 14 14 14 17 19 19 17 14 10 10 9 8 7 8 10 10 9 12 14 15 17 17 18 20
11 11 11 12 14 14 14 13 11 9 7 4 3 2 2 5 7 8 8 11 13 16 17 16 14 12 12 11 10 7 5 3 4 6 10 12 13 15 16 17 17 17 18
8 7 8 9 10 10 9 7 6 5 5 6 7 6 6 8 10 10 14 19 20 18 17 15 14 13 10 8 6 1 3 4 7 9 12 14 15 15 17 19 17 17 19
5 5 6 6 6 5 7 7 7 6 5 7 9 11 9 14 13 16 17 17 16 18 17 15 12 8 6 3 2 1 4 7 9 11 13 16 18 18 17 15 16 20 23
4 3 3 4 4 7 8 7 6 7 10 11 12 13 13 13 15 17 18 19 17 15 13 11 8 7 6 3 3 5 7 10 13 15 16 17 16 15 13 15 19 23 21
3 2 1 1 4 5 6 5 6 9 11 11 13 12 13 16 17 16 15 14 12 12 12 9 7 4 1 2 6 9 11 14 15 17 18 18 17 11 12 14 17 16 16
3 4 3 4 5 6 5 8 14 15 15 15 16 17 16 16 15 13 15 14 12 9 8 6 4 3 3 6 9 10 11 12 16 17 18 17 15 17 15 13 12 12 14
8 7 7 10 10 7 10 15 18 17 16 16 16 16 16 16 14 12 11 9 7 6 5 5 5 6 7 8 9 10 10 12 12 15 15 16 15 13 11 10 11 13 14
12 13 13 14 16 16 16 16 16 13 14 15 15 14 12 11 10 8 8 7 6 6 6 6 6 7 8 9 10 12 13 13 14 15 15 14 11 10 11 11 12 13 14
14 14 15 17 17 14 14 14 13 13 13 12 12 11 9 8 7 6 6 5 5 6 7 9 10 10 10 9 10 12 13 13 13 14 12 9 7 8 9 10 12 13 14
13 15 15 14 15 14 14 14 12 10 8 8 8 7 5 5 4 4 6 9 12 12 11 11 11 12 11 12 13 15 15 15 13 11 10 8 9 11 13 15 13 13 15
Wind_Direction
278 278 274 274 269 258 256 248 246 246 244 241 245 246 247 247 246 250 249 251 247 240 235 235 229 229 231 231 232 235 233 237 241 245 248 248 250 252 253 249 246 241 246
287 285 282 277 270 262 257 254 250 251 246 245 247 249 252 252 250 249 252 251 250 247 238 239 238 231 232 230 232 235 234 234 239 242 247 247 249 248 248 246 244 243 249
302 296 295 285 275 266 257 250 248 252 256 245 245 244 247 249 248 244 247 249 249 249 244 241 244 240 234 234 235 236 235 236 240 244 237 221 232 235 240 239 242 244 252
36 17 346 320 306 286 265 252 242 242 248 246 248 248 248 249 252 252 250 249 251 248 248 247 244 249 241 236 238 240 238 235 235 242 246 239 243 222 233 241 240 246 250
29 27 27 14 355 320 282 257 248 237 242 246 252 250 254 261 257 255 253 248 248 249 248 246 245 246 246 242 240 243 240 240 239 240 243 239 240 245 243 241 241 244 247
17 13 14 11 4 353 324 287 257 242 244 253 259 261 259 256 256 259 256 254 248 246 249 246 245 247 248 246 243 243 242 242 242 243 241 243 243 242 239 237 245 248 250
7 3 0 356 353 344 337 324 282 257 254 257 259 267 260 253 251 249 254 253 250 248 245 245 245 246 253 248 245 241 240 239 243 241 239 240 242 244 246 237 244 244 247
3 360 356 350 342 329 316 306 295 274 270 266 268 271 271 267 260 254 250 253 252 252 246 248 246 242 246 243 244 240 238 237 238 238 238 241 240 241 236 247 258 248 252
354 350 347 345 341 330 311 285 283 280 274 279 279 276 276 275 275 271 262 256 252 250 250 243 245 244 244 245 245 240 234 235 235 234 236 232 229 236 257 254 254 264 263
346 341 342 334 331 327 315 301 290 295 283 269 271 273 275 277 281 275 262 255 253 254 251 249 244 240 236 235 233 227 228 230 230 228 225 231 230 231 236 249 265 275 280
335 335 331 325 325 328 307 290 283 289 298 302 284 275 274 275 277 271 256 250 253 256 254 248 245 234 232 225 224 223 222 222 222 221 222 221 230 231 232 240 261 276 283
337 336 333 334 328 311 308 293 289 296 303 300 303 311 298 285 276 266 257 255 254 251 248 244 230 219 215 218 214 214 213 214 212 214 220 222 225 246 260 266 279 290 292
340 336 335 338 336 331 322 315 304 299 296 296 298 298 298 282 266 260 271 263 250 237 226 219 212 209 209 207 207 211 209 209 218 222 226 234 247 264 281 287 300 286 285
347 357 353 352 354 355 347 335 327 322 310 301 295 299 294 279 268 247 235 224 209 206 204 200 201 198 197 198 197 199 209 210 214 221 236 251 269 275 295 284 285 283 286
358 357 348 355 355 356 350 345 338 335 330 324 315 288 255 216 197 190 192 193 190 190 192 186 180 178 186 195 200 198 204 213 225 244 255 268 305 291 277 285 288 290 291
348 346 350 2 7 6 359 355 347 350 342 326 302 228 188 179 173 173 172 170 162 162 162 164 169 166 170 176 176 188 202 233 253 269 307 299 279 286 291 287 284 286 288
346 348 358 5 11 6 1 359 354 359 0 4 42 47 121 146 145 140 142 140 138 138 141 142 155 159 161 173 188 196 211 285 315 310 294 286 290 295 297 295 293 290 286
340 353 3 12 15 12 13 2 3 5 33 80 83 97 115 121 121 122 129 135 137 144 149 149 147 150 150 169 185 142 16 288 302 305 297 295 299 305 304 301 304 301 298
342 1 13 16 30 26 31 15 7 36 59 85 101 112 116 116 116 133 138 138 142 136 131 130 132 138 144 134 102 18 316 304 301 298 303 309 312 312 312 316 306 299 301
345 344 357 357 23 32 32 22 17 39 65 77 87 94 104 108 119 126 128 126 123 118 120 125 114 101 86 120 289 305 321 312 310 311 311 315 317 320 322 306 302 301 311
351 356 15 9 52 53 47 67 83 92 89 92 93 96 102 113 116 119 119 120 120 115 106 103 104 90 36 307 298 308 312 312 314 320 319 320 320 325 305 307 298 309 319
61 90 106 117 92 84 66 106 108 99 100 104 110 113 115 111 111 113 110 106 96 96 94 82 62 25 328 307 306 309 309 311 311 315 320 323 321 313 317 319 317 318 312
73 104 116 117 113 98 113 116 107 110 116 115 113 114 113 110 105 100 96 95 90 72 54 28 356 336 331 326 317 307 312 323 322 323 325 324 326 328 335 336 331 328 325
97 101 113 117 114 116 118 114 116 117 116 115 115 113 111 104 97 87 78 62 50 31 11 353 338 336 340 340 336 335 333 330 332 328 335 339 346 347 344 339 331 328 327
126 124 124 124 125 125 122 121 123 121 121 118 112 108 98 87 75 64 55 34 18 10 10 4 354 351 344 341 336 336 339 332 339 330 339 343 347 347 342 341 337 335 333
148 147 145 143 139 136 128 126 124 119 115 114 108 100 88 74 61 42 26 17 13 5 354 347 341 340 338 330 329 331 331 331 330 339 346 353 348 346 346 344 342 341 337